Satellite: XATCOBEO
Catalog number: 38082
Epoch time:      12117.28752276
Element set:     190
Inclination:      069.4927 deg
RA of node:       073.9787 deg
Eccentricity:    0.0752826
Arg of perigee:   313.1460 deg
Mean anomaly:     040.8996 deg
Mean motion:   14.12583278 rev/day
Decay rate:     8.3834e-04 rev/day^2
Epoch rev:            1025
Checksum:              326

/EX
SB KEPS @ AMSAT  $ORB12117.W
Orbital Elements  12117.WEATHER

HR AMSAT ORBITAL ELEMENTS FOR WEATHER SATELLITES
FROM WA5QGD FORT WORTH,TX April 26, 2012
Send SUBSCRIBE KEPS/UNSUBSCRIBE KEPS to majordomo@amsat.org only
BID: ORB12117.W
TO ALL RADIO AMATEURS BT

Satellite: NOAA-10
Catalog number: 16969
Epoch time:      12116.94328019
Element set:    0906
Inclination:      098.5843 deg
RA of node:       146.9146 deg
Eccentricity:    0.0012827
Arg of perigee:   031.1969 deg
Mean anomaly:     328.9971 deg
Mean motion:   14.27543808 rev/day
Decay rate:        2.8e-07 rev/day^2
Epoch rev:           33241
Checksum:              326

Satellite: NOAA-11
Catalog number: 19531
Epoch time:      12116.74669826
Element set:    0900
Inclination:      098.7317 deg
RA of node:       203.0052 deg
Eccentricity:    0.0011616
Arg of perigee:   017.5932 deg
Mean anomaly:     342.5647 deg
Mean motion:   14.14962539 rev/day
Decay rate:      -1.33e-06 rev/day^2
Epoch rev:           21709
Checksum:              290

Satellite: NOAA-12
Catalog number: 21263
Epoch time:      12117.80813743
Element set:     388
Inclination:      098.7301 deg
RA of node:       139.7100 deg
Eccentricity:    0.0013811
Arg of perigee:   354.4501 deg
Mean anomaly:     005.6999 deg
Mean motion:   14.25490203 rev/day
Decay rate:        9.6e-07 rev/day^2
Epoch rev:            8921
Checksum:              281

Satellite: MET-3/5
Catalog number: 21655
Epoch time:      12116.80706051
Element set:    0393
Inclination:      082.5595 deg
RA of node:       189.1874 deg
Eccentricity:    0.0014887
Arg of perigee:   093.8445 deg
Mean anomaly:     266.4373 deg
Mean motion:   13.17034727 rev/day
Decay rate:        5.1e-07 rev/day^2
Epoch rev:           99500
Checksum:              319

Satellite: MET-2/21
Catalog number: 22782
Epoch time:      12116.80268649
Element set:    0402
Inclination:      082.5470 deg
RA of node:       074.0728 deg
Eccentricity:    0.0021216
Arg of perigee:   302.4169 deg
Mean anomaly:     057.4943 deg
Mean motion:   13.83680352 rev/day
Decay rate:       1.23e-06 rev/day^2
Epoch rev:           94192
Checksum:              289

Satellite: OKEAN-4
Catalog number: 23317
Epoch time:      12116.96957581
Element set:    0914
Inclination:      082.5389 deg
RA of node:       080.0153 deg
Eccentricity:    0.0021836
Arg of perigee:   159.2373 deg
Mean anomaly:     200.9732 deg
Mean motion:   14.83708071 rev/day
Decay rate:      1.550e-05 rev/day^2
Epoch rev:           94706
Checksum:              305

Satellite: NOAA-14
Catalog number: 23455
Epoch time:      12116.96328420
Element set:    0885
Inclination:      098.8267 deg
RA of node:       201.1158 deg
Eccentricity:    0.0010233
Arg of perigee:   105.9884 deg
Mean anomaly:     254.2413 deg
Mean motion:   14.13892025 rev/day
Decay rate:        6.7e-07 rev/day^2
Epoch rev:           89341
Checksum:              297

Satellite: NOAA-15
Catalog number: 25338
Epoch time:      12116.74898713
Element set:    0239
Inclination:      098.6877 deg
RA of node:       104.1609 deg
Eccentricity:    0.0009626
Arg of perigee:   260.7076 deg
Mean anomaly:     099.2981 deg
Mean motion:   14.25057065 rev/day
Decay rate:       1.35e-06 rev/day^2
Epoch rev:           72538
Checksum:              333

Satellite: RESURS
Catalog number: 25394
Epoch time:      12116.92435917
Element set:    0076
Inclination:      098.3180 deg
RA of node:       107.9210 deg
Eccentricity:    0.0002305
Arg of perigee:   048.7071 deg
Mean anomaly:     311.4309 deg
Mean motion:   14.24284010 rev/day
Decay rate:        8.0e-07 rev/day^2
Epoch rev:           71696
Checksum:              267

Satellite: FENGYUN1
Catalog number: 25730
Epoch time:      12117.46611332
Element set:     591
Inclination:      098.8449 deg
RA of node:       077.3598 deg
Eccentricity:    0.0018807
Arg of perigee:   147.9960 deg
Mean anomaly:     212.2355 deg
Mean motion:   14.09428228 rev/day
Decay rate:      1.796e-05 rev/day^2
Epoch rev:           66732
Checksum:              327

Satellite: OKEAN-0
Catalog number: 25860
Epoch time:      12116.92911528
Element set:    0630
Inclination:      097.9309 deg
RA of node:       080.6586 deg
Eccentricity:    0.0001913
Arg of perigee:   060.0405 deg
Mean anomaly:     300.0995 deg
Mean motion:   14.74162387 rev/day
Decay rate:       6.41e-06 rev/day^2
Epoch rev:           68687
Checksum:              302

Satellite: NOAA-16
Catalog number: 26536
Epoch time:      12117.19438042
Element set:     724
Inclination:      099.0985 deg
RA of node:       158.5011 deg
Eccentricity:    0.0009945
Arg of perigee:   227.0550 deg
Mean anomaly:     132.9813 deg
Mean motion:   14.12727334 rev/day
Decay rate:       -4.0e-07 rev/day^2
Epoch rev:           59769
Checksum:              307

